This is the latest recevied weather packets stored in our database for station/object DL7MAP-13. If no packets are shown the sender has not sent any weather packets the latest 10 day(s).
| Time | Temp. | Humidity | Pressure | Rain* | Wind** | Luminosity | Snow |
|---|---|---|---|---|---|---|---|
| 1777470187 | 15° C | 29% | 1025.3 hPa | - | - | - | - |
| 1777469287 | 14.44° C | 29% | 1024.2 hPa | - | - | - | - |
| 1777468386 | 14.44° C | 29% | 1024.6 hPa | - | - | - | - |
| 1777467487 | 14.44° C | 29% | 1024.7 hPa | - | - | - | - |
| 1777466587 | 13.89° C | 29% | 1023.9 hPa | - | - | - | - |
| 1777465687 | 13.89° C | 29% | 1024.4 hPa | - | - | - | - |
| 1777464787 | 14.44° C | 29% | 1024.9 hPa | - | - | - | - |
| 1777463887 | 14.44° C | 29% | 1024.4 hPa | - | - | - | - |
| 1777462986 | 13.33° C | 30% | 1025.1 hPa | - | - | - | - |
| 1777462087 | 13.33° C | 29% | 1025.1 hPa | - | - | - | - |
| 1777461187 | 13.33° C | 29% | 1025.5 hPa | - | - | - | - |
| 1777460287 | 13.33° C | 28% | 1025 hPa | - | - | - | - |
| 1777459387 | 13.33° C | 29% | 1025.7 hPa | - | - | - | - |
| 1777458487 | 12.22° C | 29% | 1024.5 hPa | - | - | - | - |
| 1777457587 | 12.22° C | 30% | 1025.4 hPa | - | - | - | - |
| 1777456686 | 12.22° C | 29% | 1026.1 hPa | - | - | - | - |
| 1777455787 | 12.22° C | 29% | 1025.8 hPa | - | - | - | - |
| 1777454886 | 12.22° C | 30% | 1025.5 hPa | - | - | - | - |
| 1777453986 | 11.67° C | 30% | 1025.3 hPa | - | - | - | - |
| 1777453086 | 11.67° C | 30% | 1025.1 hPa | - | - | - | - |
| 1777452187 | 11.67° C | 31% | 1026 hPa | - | - | - | - |
| 1777451287 | 11.67° C | 32% | 1025.2 hPa | - | - | - | - |
| 1777450387 | 10.56° C | 33% | 1024.7 hPa | - | - | - | - |
| 1777449487 | 11.11° C | 33% | 1025.5 hPa | - | - | - | - |
| 1777448587 | 10.56° C | 34% | 1025.3 hPa | - | - | - | - |
* Rain since midnight (hover to see other rain measurements)
** Current wind speed in m/s (hover to see current wind gust speed)